WMT324 EGGW-LRTM

Flight info

Callsign WMT324
Flight time N/A
Altitude 35000
Route MATCH Q295 BRAIN M197 REDFA DCT TACHA DCT OTMEC DCT EXOBA DCT SUVUT DCT OMELO DCT OMIFU DCT PITOK DCT PERIT DCT BADOR DCT LARMU
Aircraft A320/M-SDE3FGHIRWY/LB1

Departure

Time 2026-04-28 15:37
Airport London Luton Airport (EGGW)

Arrival

Time N/A
Airport Târgu Mureş Transilvania International Airport (LRTM)
Time Latitude Longitude Altitude Speed Heading
2026-04-28 15:03 51.88108 -0.37703 524 ft 0 kts 170°
2026-04-28 15:29 51.88114 -0.37705 523 ft 4 kts 171°
2026-04-28 15:30 51.88137 -0.37714 523 ft 4 kts 126°
2026-04-28 15:30 51.88146 -0.37736 523 ft 4 kts 166°
2026-04-28 15:30 51.88159 -0.37724 523 ft 4 kts 237°
2026-04-28 15:30 51.88168 -0.37700 523 ft 0 kts 239°
2026-04-28 15:33 51.88166 -0.37705 523 ft 2 kts 239°
2026-04-28 15:33 51.88146 -0.37753 523 ft 7 kts 233°
2026-04-28 15:34 51.88099 -0.37832 523 ft 13 kts 218°
2026-04-28 15:34 51.88022 -0.37930 523 ft 15 kts 217°
2026-04-28 15:34 51.87928 -0.38014 523 ft 17 kts 190°
2026-04-28 15:34 51.87817 -0.37947 523 ft 18 kts 135°
2026-04-28 15:35 51.87757 -0.37763 523 ft 18 kts 117°
2026-04-28 15:35 51.87574 -0.37459 522 ft 21 kts 182°
2026-04-28 15:35 51.87488 -0.37626 523 ft 21 kts 253°
2026-04-28 15:36 51.87448 -0.37860 523 ft 23 kts 255°
2026-04-28 15:36 51.87405 -0.38029 524 ft 14 kts 226°
2026-04-28 15:36 51.87310 -0.38110 522 ft 16 kts 199°
2026-04-28 15:36 51.87251 -0.38064 524 ft 9 kts 87°
2026-04-28 15:37 51.87273 -0.37942 524 ft 20 kts 75°
2026-04-28 15:37 51.87374 -0.37367 522 ft 94 kts 74°
2026-04-28 15:37 51.87623 -0.36005 588 ft 152 kts 69°
2026-04-28 15:37 51.87821 -0.34893 1146 ft 152 kts 69°
2026-04-28 15:38 51.88200 -0.32704 2446 ft 155 kts 70°
2026-04-28 15:38 51.88501 -0.30939 2803 ft 173 kts 70°
2026-04-28 15:38 51.88851 -0.28929 3060 ft 198 kts 71°
2026-04-28 15:38 51.89244 -0.26653 3428 ft 222 kts 72°
2026-04-28 15:39 51.89586 -0.24122 4090 ft 238 kts 86°
2026-04-28 15:39 51.89159 -0.21497 4782 ft 250 kts 117°
2026-04-28 15:39 51.87852 -0.19627 4969 ft 260 kts 147°
2026-04-28 15:39 51.86195 -0.18436 5004 ft 260 kts 150°
2026-04-28 15:40 51.84512 -0.17338 5013 ft 261 kts 151°
2026-04-28 15:40 51.83395 -0.16614 5011 ft 261 kts 151°
2026-04-28 15:40 51.81720 -0.15482 5101 ft 261 kts 150°
2026-04-28 15:40 51.80053 -0.14320 5117 ft 261 kts 150°
2026-04-28 15:41 51.78385 -0.13140 5105 ft 262 kts 150°
2026-04-28 15:41 51.76795 -0.11791 5106 ft 254 kts 135°
2026-04-28 15:41 51.75714 -0.09649 5104 ft 243 kts 110°
2026-04-28 15:41 51.75319 -0.07055 5100 ft 237 kts 88°
2026-04-28 15:42 51.75489 -0.04418 5092 ft 237 kts 81°
2026-04-28 15:42 51.75712 -0.01792 5086 ft 236 kts 81°
2026-04-28 15:42 51.75931 0.00839 5004 ft 237 kts 81°
2026-04-28 15:42 51.76150 0.03479 5011 ft 238 kts 82°
2026-04-28 15:43 51.76368 0.06116 5006 ft 237 kts 82°
2026-04-28 15:43 51.76587 0.08754 5008 ft 237 kts 81°
2026-04-28 15:43 51.76806 0.11381 5008 ft 237 kts 81°
2026-04-28 15:43 51.77027 0.14016 5010 ft 237 kts 81°
2026-04-28 15:44 51.77246 0.16655 5008 ft 237 kts 81°
2026-04-28 15:44 51.77460 0.19297 5009 ft 238 kts 81°
2026-04-28 15:44 51.77674 0.21948 5012 ft 238 kts 81°
2026-04-28 15:44 51.77889 0.24603 5013 ft 239 kts 81°
2026-04-28 15:45 51.78105 0.27272 5291 ft 241 kts 82°
2026-04-28 15:45 51.78317 0.29914 6308 ft 240 kts 82°
2026-04-28 15:45 51.78533 0.32602 7212 ft 243 kts 83°
2026-04-28 15:45 51.78750 0.35328 8035 ft 247 kts 83°
2026-04-28 15:46 51.78971 0.38096 8875 ft 251 kts 83°
2026-04-28 15:46 51.79197 0.40913 9681 ft 255 kts 83°
2026-04-28 15:46 51.79425 0.43772 10441 ft 259 kts 83°
2026-04-28 15:46 51.79663 0.46778 10738 ft 281 kts 83°
2026-04-28 15:47 51.79921 0.50041 10889 ft 304 kts 83°
2026-04-28 15:47 51.80198 0.53555 11080 ft 324 kts 83°
2026-04-28 15:47 51.80484 0.57208 11597 ft 331 kts 84°
2026-04-28 15:47 51.80776 0.60926 12203 ft 335 kts 83°
2026-04-28 15:48 51.81078 0.64687 12808 ft 340 kts 81°
2026-04-28 15:48 51.81609 0.68424 13442 ft 344 kts 77°
2026-04-28 15:48 51.82195 0.72188 14094 ft 347 kts 77°
2026-04-28 15:48 51.82782 0.75987 14683 ft 350 kts 77°
2026-04-28 15:49 51.83371 0.79813 15266 ft 352 kts 77°
2026-04-28 15:49 51.83976 0.83658 15841 ft 354 kts 76°
2026-04-28 15:49 51.84646 0.87504 16424 ft 356 kts 75°
2026-04-28 15:49 51.85358 0.91352 16996 ft 358 kts 75°
2026-04-28 15:50 51.86089 0.95221 17571 ft 361 kts 75°
2026-04-28 15:50 51.86823 0.99120 18106 ft 364 kts 74°
2026-04-28 15:50 51.87556 1.03068 18595 ft 369 kts 75°
2026-04-28 15:50 51.88288 1.07060 19091 ft 371 kts 75°
2026-04-28 15:51 51.89015 1.11078 19636 ft 373 kts 75°
2026-04-28 15:51 51.89741 1.15122 20161 ft 375 kts 75°
2026-04-28 15:51 51.90467 1.19178 20692 ft 376 kts 75°
2026-04-28 15:51 51.91197 1.23258 21193 ft 378 kts 75°
2026-04-28 15:52 51.91930 1.27356 21691 ft 380 kts 75°
2026-04-28 15:52 51.92666 1.31475 22165 ft 381 kts 75°
2026-04-28 15:52 51.93403 1.35611 22624 ft 383 kts 75°
2026-04-28 15:52 51.94129 1.39715 23076 ft 385 kts 75°
2026-04-28 15:53 51.94878 1.43949 23527 ft 387 kts 75°
2026-04-28 15:53 51.95612 1.48094 23910 ft 389 kts 75°
2026-04-28 15:53 51.96361 1.52336 24176 ft 394 kts 75°
2026-04-28 15:53 51.97115 1.56621 24498 ft 396 kts 75°
2026-04-28 15:54 51.97868 1.60926 24834 ft 398 kts 75°
2026-04-28 15:54 51.98624 1.65257 25182 ft 400 kts 75°
2026-04-28 15:54 51.99380 1.69606 25542 ft 402 kts 75°
2026-04-28 15:54 52.00102 1.73991 25898 ft 403 kts 76°
2026-04-28 15:55 52.00796 1.78410 26245 ft 405 kts 76°
2026-04-28 15:55 52.01473 1.82857 26602 ft 407 kts 77°
2026-04-28 15:55 52.02146 1.87323 26938 ft 408 kts 77°
2026-04-28 15:55 52.02823 1.91808 27305 ft 409 kts 77°
2026-04-28 15:56 52.03503 1.96278 27853 ft 405 kts 76°
2026-04-28 15:56 52.04175 2.00687 28450 ft 402 kts 76°
2026-04-28 15:56 52.04848 2.05079 28983 ft 399 kts 76°
2026-04-28 15:56 52.05519 2.09447 29522 ft 397 kts 76°
2026-04-28 15:57 52.06183 2.13784 30070 ft 394 kts 76°
2026-04-28 15:57 52.06839 2.18087 30561 ft 392 kts 76°
2026-04-28 15:57 52.07494 2.22390 30981 ft 391 kts 76°
2026-04-28 15:57 52.08146 2.26686 31373 ft 391 kts 76°
2026-04-28 15:58 52.08791 2.30978 31759 ft 391 kts 76°
2026-04-28 15:58 52.09436 2.35273 32142 ft 391 kts 76°
2026-04-28 15:58 52.10077 2.39567 32520 ft 391 kts 76°
2026-04-28 15:58 52.10716 2.43864 32918 ft 391 kts 76°
2026-04-28 15:59 52.11358 2.48163 33248 ft 392 kts 76°
2026-04-28 15:59 52.12058 2.52460 33565 ft 393 kts 74°
2026-04-28 15:59 52.12847 2.56729 33925 ft 394 kts 72°
2026-04-28 15:59 52.13684 2.60972 34302 ft 394 kts 72°
2026-04-28 16:00 52.14535 2.65210 34599 ft 394 kts 72°
2026-04-28 16:00 52.15382 2.69463 34864 ft 395 kts 72°
2026-04-28 16:00 52.16206 2.73676 35133 ft 397 kts 72°
2026-04-28 16:00 52.17032 2.77976 35263 ft 399 kts 73°
2026-04-28 16:01 52.18686 2.86762 35297 ft 411 kts 73°
2026-04-28 16:01 52.20349 2.95719 35287 ft 414 kts 73°
2026-04-28 16:02 52.22022 3.04750 35284 ft 417 kts 73°
2026-04-28 16:02 52.23704 3.13818 35277 ft 418 kts 73°
2026-04-28 16:03 52.25189 3.22971 35298 ft 417 kts 81°
2026-04-28 16:03 52.25094 3.32404 35309 ft 417 kts 93°
2026-04-28 16:04 52.24512 3.41797 35302 ft 415 kts 93°
2026-04-28 16:04 52.23912 3.51165 35297 ft 415 kts 93°
2026-04-28 16:05 52.23307 3.60529 35288 ft 415 kts 93°
2026-04-28 16:05 52.22698 3.69901 35284 ft 416 kts 94°
2026-04-28 16:06 52.22083 3.79285 35252 ft 417 kts 94°
2026-04-28 16:06 52.21454 3.88720 35241 ft 419 kts 94°
2026-04-28 16:07 52.20814 3.98178 35237 ft 421 kts 94°
2026-04-28 16:08 52.19822 4.12464 35232 ft 424 kts 94°
2026-04-28 16:08 52.19167 4.21981 35228 ft 426 kts 94°
2026-04-28 16:09 52.18151 4.36384 35239 ft 427 kts 95°
2026-04-28 16:10 52.17109 4.50807 35244 ft 428 kts 95°
2026-04-28 16:10 52.16048 4.65240 35251 ft 428 kts 95°
2026-04-28 16:11 52.14610 4.84483 35257 ft 428 kts 95°
2026-04-28 16:12 52.13520 4.98921 35239 ft 429 kts 95°
2026-04-28 16:13 52.12398 5.13402 35230 ft 431 kts 95°
2026-04-28 16:14 52.10864 5.32765 35233 ft 432 kts 95°
2026-04-28 16:15 52.09304 5.52160 35223 ft 433 kts 95°
2026-04-28 16:15 52.08508 5.61877 35223 ft 434 kts 96°
2026-04-28 16:16 52.07297 5.76410 35235 ft 435 kts 96°
2026-04-28 16:17 52.05937 5.91069 35244 ft 436 kts 98°
2026-04-28 16:17 52.04839 6.00703 35241 ft 437 kts 98°
2026-04-28 16:18 52.03715 6.10414 35238 ft 438 kts 97°
2026-04-28 16:18 52.02627 6.20141 35236 ft 438 kts 97°
2026-04-28 16:19 52.01540 6.29881 35232 ft 438 kts 99°
2026-04-28 16:19 52.00440 6.39612 35242 ft 439 kts 97°
2026-04-28 16:20 51.99327 6.49362 35227 ft 440 kts 98°
2026-04-28 16:20 51.98195 6.59135 35225 ft 441 kts 97°
2026-04-28 16:21 51.97056 6.68925 35224 ft 442 kts 98°
2026-04-28 16:21 51.96677 6.72173 35226 ft 442 kts 97°